sat.trackr.live / text

‹ back to catalog

STARLINK-37166

NORAD 69195 · 2026-114P

PAYLOAD ACTIVE UNKNOWN

§ Identity

Operator
Country
US
Launch date
2026-05-25
Launch site
AFETR
Launch vehicle
Mass (kg)
RCS (m²)

Purposes: comms

External: N2YO · Heavens-Above · Gunter

§ Orbital elements

Epoch: 2026-09-20T00:41:41.333568Z

Period
93.85 min
Inclination
53.1564°
Eccentricity
0.0001048
Mean motion
15.34413306 rev/d
Perigee alt
461.9 km
Apogee alt
463.4 km
Semi-major
6,840.8 km
B*
4.0798e-4
RAAN
115.9372°
Arg perigee
83.8861°
Mean anomaly
276.2261°
Rev number
1,937

§ Raw data

STARLINK-371661 69195U 26114P   26263.02895062  .00013439  00000+0  40798-3 0  99952 69195  53.1564 115.9372 0001048  83.8861 276.2261 15.34413306 19377

JSON: /api/v1/satellites/69195 · /tle

For live sub-satellite position, see the globe view (requires WebGL).

§ Visibility from observer

Set your observer location to see the next 7 days of passes ≥ 10°. The values pass through the URL so the page stays shareable.

No JS? Fill the form by hand. The geolocation button needs JavaScript.